WetterOnline ( http://www.wetteronline.de )

Wetter aktuell Grevesmühlen

Aktuelles Wetter: Boltenhagen (17m)

6-stündlich | Neueste Meldungen
Ortszeit Temperatur Wetter
So, 19.08. 2:00 16.7° C wolkig
Sa, 18.08. 20:00 21.9° C wolkig
Sa, 18.08. 14:00 24.3° C leicht bewölkt
Sa, 18.08. 8:00 13.8° C wolkenlos
Sa, 18.08. 2:00 16.0° C wolkenlos
Fr, 17.08. 20:00 19.7° C bedeckt
Fr, 17.08. 14:00 23.2° C bewölkt
Fr, 17.08. 8:00 19.5° C wolkenlos
Ortszeit Temperatur Wetter
So, 19.08. 4:00 14.3° C wolkig
So, 19.08. 3:50 14.3° C wolkig
So, 19.08. 3:40 14.6° C wolkig
So, 19.08. 3:30 15.1° C wolkig
So, 19.08. 3:20 15.1° C bedeckt
So, 19.08. 3:10 15.2° C wolkig
So, 19.08. 3:00 15.3° C wolkig
So, 19.08. 2:30 15.4° C wolkig
So, 19.08. 2:00 16.7° C wolkig
So, 19.08. 1:30 17.8° C bedeckt
So, 19.08. 1:00 17.5° C wolkig
Ortszeit Relative Feuchte Sichtweite
So, 19.08. 2:00 89% 9 km
Sa, 18.08. 20:00 54% 35 km
Sa, 18.08. 14:00 41% 22 km
Sa, 18.08. 8:00 88% 10 km
Sa, 18.08. 2:00 76% 35 km
Fr, 17.08. 20:00 73% 26 km
Fr, 17.08. 14:00 60% 15 km
Fr, 17.08. 8:00 81% 10 km
Ortszeit Relative Feuchte Sichtweite
So, 19.08. 4:00 94% 8 km
So, 19.08. 3:50 94% -
So, 19.08. 3:40 94% -
So, 19.08. 3:30 93% 8 km
So, 19.08. 3:20 93% -
So, 19.08. 3:10 93% -
So, 19.08. 3:00 93% 9 km
So, 19.08. 2:30 91% 9 km
So, 19.08. 2:00 89% 9 km
So, 19.08. 1:30 84% 10 km
So, 19.08. 1:00 79% 16 km
Ortszeit Niederschlagsmenge Niederschlagsart
So, 19.08. 2:00 0.0 l/m2 in 6 Std. -
Sa, 18.08. 20:00 0.0 l/m2 in 12 Std. -
Sa, 18.08. 14:00 0.0 l/m2 in 6 Std. -
Sa, 18.08. 8:00 0.0 l/m2 in 12 Std. -
Sa, 18.08. 2:00 0.0 l/m2 in 6 Std. -
Fr, 17.08. 20:00 0.1 l/m2 in 12 Std. Regen
Fr, 17.08. 14:00 0.0 l/m2 in 6 Std. -
Fr, 17.08. 8:00 0.0 l/m2 in 12 Std. -
Ortszeit Niederschlagsmenge Niederschlagsart
So, 19.08. 4:00 0.0 l/m2 in 1 Std. -
So, 19.08. 3:50 keine Meldung -
So, 19.08. 3:40 keine Meldung -
So, 19.08. 3:30 0.0 l/m2 in 1 Std. -
So, 19.08. 3:20 keine Meldung -
So, 19.08. 3:10 keine Meldung -
So, 19.08. 3:00 0.0 l/m2 in 1 Std. -
So, 19.08. 2:30 0.0 l/m2 in 1 Std. -
So, 19.08. 2:00 0.0 l/m2 in 1 Std. -
So, 19.08. 1:30 0.0 l/m2 in 1 Std. -
So, 19.08. 1:00 0.0 l/m2 in 1 Std. -
Ortszeit Stärke Spitze Richtung
km/h Bft. km/h Grad Sektor
So, 19.08. 2:00 11 2 22 250° W
Sa, 18.08. 20:00 14 3 40 270° W
Sa, 18.08. 14:00 22 4 40 240° SW
Sa, 18.08. 8:00 11 2 22 210° SW
Sa, 18.08. 2:00 13 3 24 290° W
Fr, 17.08. 20:00 11 2 37 310° NW
Fr, 17.08. 14:00 18 3 29 280° W
Fr, 17.08. 8:00 13 3 30 300° NW
Ortszeit Stärke Spitze Richtung
km/h Bft. km/h Grad Sektor
So, 19.08. 4:00 9 2 11 200° S
So, 19.08. 3:50 9 2 - 200° S
So, 19.08. 3:40 7 2 - 210° SW
So, 19.08. 3:30 7 2 11 210° SW
So, 19.08. 3:20 7 2 - 210° SW
So, 19.08. 3:10 7 2 - 230° SW
So, 19.08. 3:00 9 2 11 250° W
So, 19.08. 2:30 9 2 11 250° W
So, 19.08. 2:00 11 2 22 250° W
So, 19.08. 1:30 13 3 20 270° W
So, 19.08. 1:00 13 3 19 270° W
Ortszeit Untergrenze Bedeckung Gattung
total tief tief mittel hoch
So, 19.08. 2:00 1800 m 6/8 2/8 - - -
Sa, 18.08. 20:00 8100 m 8/8 0/8 - - -
Sa, 18.08. 14:00 10500 m 8/8 0/8 - - -
Sa, 18.08. 8:00 - 0/8 0/8 - - -
Sa, 18.08. 2:00 - 0/8 0/8 - - -
Fr, 17.08. 20:00 1500 m 8/8 8/8 - - -
Fr, 17.08. 14:00 1800 m 7/8 7/8 - - -
Fr, 17.08. 8:00 - 0/8 0/8 - - -
Ortszeit Bedeckungsgrad in Achtel und Wolkenuntergrenze
So, 19.08. 4:00 1(2700m) 6(10500m) 7(12000m)
So, 19.08. 3:50 1(2700m) 6(10500m) 7(12000m)
So, 19.08. 3:40 1(1500m) 5(10500m) 7(12000m)
So, 19.08. 3:30 1(1500m) 2(2700m) 9(12000m)
So, 19.08. 3:20 9 9 9
So, 19.08. 3:10 1(630m) 2(2700m) 6(12000m)
So, 19.08. 3:00 1(10500m) 7(12000m)
So, 19.08. 2:30 2(780m) 4(10500m) 6(12000m)
So, 19.08. 2:00 2(1800m) 6(10500m) 6(12000m)
So, 19.08. 1:30 9 9 9
So, 19.08. 1:00 1(3300m) 5(9000m)
Ortszeit Luftdruck NN (hPa) Tendenz (hPa in 3 Std.)
So, 19.08. 2:00 1021 + 0,3
Sa, 18.08. 20:00 1020 + 0,4
Sa, 18.08. 14:00 1020 - 0,7
Sa, 18.08. 8:00 1021 + 0,6
Sa, 18.08. 2:00 1020 + 1,0
Fr, 17.08. 20:00 1018 + 0,5
Fr, 17.08. 14:00 1017 + 0,5
Fr, 17.08. 8:00 1016 + 1,0
Ortszeit Luftdruck NN (hPa) Tendenz (hPa in 3 Std.)
So, 19.08. 4:00 1021 - 0,1
So, 19.08. 3:50 1021 keine Meldung
So, 19.08. 3:40 1021 keine Meldung
So, 19.08. 3:30 1021 + 0,2
So, 19.08. 3:20 1021 keine Meldung
So, 19.08. 3:10 1021 keine Meldung
So, 19.08. 3:00 1021 + 0,2
So, 19.08. 2:30 1021 + 0,2
So, 19.08. 2:00 1021 + 0,3
So, 19.08. 1:30 1021 + 0,3
So, 19.08. 1:00 1021 + 0,6
Ortszeit Schneehöhe (cm)
So, 19.08. 2:00 -
Sa, 18.08. 20:00 -
Sa, 18.08. 14:00 -
Sa, 18.08. 8:00 -
Sa, 18.08. 2:00 -
Fr, 17.08. 20:00 -
Fr, 17.08. 14:00 -
Fr, 17.08. 8:00 -
Ortszeit Schneehöhe (cm)
So, 19.08. 4:00 -
So, 19.08. 3:50 -
So, 19.08. 3:40 -
So, 19.08. 3:30 -
So, 19.08. 3:20 -
So, 19.08. 3:10 -
So, 19.08. 3:00 -
So, 19.08. 2:30 -
So, 19.08. 2:00 -
So, 19.08. 1:30 -
So, 19.08. 1:00 -
Link zu dieser Seite / Seite empfehlen

Das Wetter in ...